Location: Munich
(48.1349°N, 11.5617°E)
Time: 19:03:55
(UTC+02:00)

ISS - Visible Passes

Search period start: 23 May 2018 00:00
Search period end: 02 June 2018 00:00
Orbit: 402 x 407 km, 51.6° (Epoch: 24 May)

Date Brightness Start Highest point End Pass type
(mag) Time Alt. Az. Time Alt. Az. Time Alt. Az.
23 May -2.6 00:37:48 10° WNW 00:40:57 43° N 00:44:05 10° ENE visible
23 May -3.6 02:14:28 10° WNW 02:17:44 68° NNE 02:20:58 10° ESE visible
23 May -3.0 03:51:10 10° W 03:54:02 28° SW 03:56:53 10° SSE visible
23 May -3.9 22:08:49 10° SW 22:12:03 66° SSE 22:15:18 10° ENE visible
23 May -2.8 23:45:30 10° W 23:48:40 46° N 23:51:50 10° ENE visible
24 May -3.1 01:22:16 10° WNW 01:25:28 52° NNE 01:27:54 16° E visible
24 May -2.3 02:58:49 10° WNW 03:00:18 23° W 03:00:18 23° W visible
24 May -3.1 22:53:09 10° W 22:56:23 55° NNW 22:59:37 10° ENE visible
25 May -2.7 00:30:01 10° WNW 00:33:12 45° N 00:35:43 15° ENE visible
25 May -2.4 02:06:34 10° WNW 02:08:18 28° WNW 02:08:18 28° WNW visible
25 May -3.6 22:00:51 10° WSW 22:04:07 73° NNW 22:07:24 10° ENE visible
25 May -2.6 23:37:44 10° WNW 23:40:53 42° N 23:44:01 10° ENE visible
26 May -3.5 01:14:21 10° WNW 01:17:14 63° NW 01:17:14 63° NW visible
26 May -2.7 22:45:23 10° W 22:48:34 44° N 22:51:43 10° ENE visible
27 May -3.3 00:22:08 10° WNW 00:25:22 57° NNE 00:26:24 36° ENE visible
27 May -1.2 01:58:43 10° WNW 01:59:01 12° WNW 01:59:01 12° WNW visible
27 May -2.9 21:53:01 10° W 21:56:14 51° NNW 21:59:26 10° ENE visible
27 May -2.8 23:29:52 10° WNW 23:33:03 47° N 23:35:40 14° E visible
28 May -2.5 01:06:24 10° WNW 01:08:17 31° W 01:08:17 31° W visible
28 May -2.6 22:37:33 10° WNW 22:40:41 43° N 22:43:50 10° ENE visible
29 May -3.9 00:14:08 10° WNW 00:17:24 86° NNE 00:17:36 77° E visible
29 May -2.6 21:45:10 10° WNW 21:48:20 43° N 21:51:29 10° ENE visible
29 May -3.4 23:21:52 10° WNW 23:25:07 62° NNE 23:26:58 23° E visible
30 May -1.7 00:58:30 10° W 00:59:36 18° W 00:59:36 18° W visible
30 May -3.0 22:29:35 10° WNW 22:32:47 49° N 22:35:59 10° E visible
31 May -3.5 00:06:06 10° WNW 00:08:59 50° SW 00:08:59 50° SW visible
31 May -2.7 21:37:14 10° WNW 21:40:24 44° N 21:43:33 10° E visible
31 May -3.9 23:13:47 10° WNW 23:17:04 83° SSW 23:18:24 33° ESE visible
01 Jun -1.1 00:50:57 10° W 00:51:01 10° W 00:51:01 10° W visible
01 Jun -3.6 22:21:29 10° WNW 22:24:46 69° NNE 22:27:49 11° ESE visible
